Regional Weather Roundup
Issued by NWS Little Rock, AR

Home | Current Version | Previous Version | Text Only | Print | Product List | Glossary Off
Versions: 1 2 3 4 5 6 7 8 9 10 11 12 13 14 15 16 17 18 19 20 21 22 23 24 25 26 27 28 29 30 31 32

000
ASUS44 KLZK 181705
RWRLZK

WEATHER ROUNDUP FOR ARKANSAS
NATIONAL WEATHER SERVICE LITTLE ROCK AR
1200 PM CDT FRI AUG 18 2017

NOTE: "FAIR" INDICATES FEW OR NO CLOUDS BELOW 12,000 FEET WITH NO
SIGNIFICANT WEATHER AND/OR OBSTRUCTIONS TO VISIBILITY.

ARZ001-003-010-029-181800-
NORTHWEST ARKANSAS

CITY           SKY/WX    TMP DP  RH WIND       PRES   REMARKS
FAYETTEVILLE   SUNNY     85  74  69 S9        30.04F HX  92
FORT SMITH     SUNNY     88  74  63 VRB6      30.01F HX  96
HARRISON       PTSUNNY   82  71  69 VRB3      30.05F HX  86
BENTONVILLE    MOSUNNY   84  73  70 SW8       30.05S HX  91
ROGERS         PTSUNNY   85  74  69 S9        30.05F HX  92
SILOAM SPGS    MOSUNNY   86  73  66 SW9       30.03F HX  93
HIGHFILL       MOSUNNY   85  74  69 S8        30.04F HX  92
SPRINGDALE     MOSUNNY   84  72  65 SW7G15    30.06F HX  89
$$

ARZ004-005-016-181800-
NORTH CENTRAL ARKANSAS

CITY           SKY/WX    TMP DP  RH WIND       PRES   REMARKS
BATESVILLE     SUNNY     86  68  54 SW8       30.02F HX  89
FLIPPIN        MOSUNNY   84  64  51 W5        30.01F HX  86
$$

ARZ040-041-181800-
WEST CENTRAL ARKANSAS

CITY           SKY/WX    TMP DP  RH WIND       PRES   REMARKS
MENA           MOSUNNY   88  75  66 W5        30.06F HX  97
MOUNT IDA      MOSUNNY   87  70  56 VRB3      30.03S HX  92
$$

ARZ009-017-025-026-028-181800-
NORTHEAST ARKANSAS

CITY           SKY/WX    TMP DP  RH WIND       PRES   REMARKS
CORNING        FAIR      84  73  70 SW5       30.02S HX  91
JONESBORO      SUNNY     85  66  53 CALM      30.02S HX  87
NEWPORT        SUNNY     85  68  56 VRB3      30.02F HX  88
WALNUT RIDGE   SUNNY     84  64  51 SW3       30.01F HX  86
BLYTHEVILLE    SUNNY     85  68  56 W5        30.02F HX  88
NW BLYTHEVILLE SUNNY     88  66  48 W7        30.02S HX  90
$$

ARZ022-023-033-042-044-181800-
CENTRAL ARKANSAS

CITY           SKY/WX    TMP DP  RH WIND       PRES   REMARKS
LITTLE ROCK    PTSUNNY   87  73  62 CALM      30.03F HX  94
N LITTLE ROCK    N/A     86  73  64 CALM      30.03F HX  92
JACKSONVILLE   SUNNY     87  74  65 CALM      30.02F HX  96
CONWAY           N/A     88  72  58 CALM      30.01F HX  94
SEARCY           N/A     88  73  61 VRB5      30.04  HX  95
HOT SPRINGS    MOSUNNY   88  74  63 VRB5      30.04F HX  96
RUSSELLVILLE   SUNNY     87  75  67 S3        30.03F HX  96
CLINTON        FAIR      86  73  66 VRB3      30.03F HX  93
$$

ARZ036-181800-
EAST ARKANSAS

CITY           SKY/WX    TMP DP  RH WIND       PRES   REMARKS
WEST MEMPHIS   SUNNY     87  71  58 VRB5      30.01F HX  93
$$

ARZ050-053-066-070-073-181800-
SOUTHWEST ARKANSAS

CITY           SKY/WX    TMP DP  RH WIND       PRES   REMARKS
ARKADELPHIA    FAIR      89  78  70 VRB3      30.03F HX 103
CAMDEN         MOSUNNY   91  73  55 CALM      30.02F HX 100
TEXARKANA      PTSUNNY   86  78  77 SW7       30.04F HX  98
EL DORADO      PTSUNNY   89  77  67 VRB7      30.04F HX 101
DE QUEEN       MOSUNNY   86  79  79 SW5       30.01F HX  99
$$

ARZ056-057-069-181800-
SOUTHEAST ARKANSAS

CITY           SKY/WX    TMP DP  RH WIND       PRES   REMARKS
PINE BLUFF     PTSUNNY   88  74  63 W8        30.03S HX  96
MONTICELLO     SUNNY     88  74  63 NW7       30.03F HX  96

$$






USA.gov is the U.S. government's official web portal to all federal, state and local government web resources and services.